Weather History for Bishop, CA

Change the Weather History Date:

Thursday, February 27, 2014

  Actual Average Record
Temperature  
Mean Temperature 49 °F 45 °F  
Max Temperature 62 °F 61 °F 81 °F (1986)
Min Temperature 36 °F 29 °F 8 °F (1971)
Degree Days  
Heating Degree Days 16 20  
Month to date heating degree days 502 618  
Since 1 July heating degree days 2928 3187  
Cooling Degree Days 0 0  
Month to date cooling degree days 0 0  
Year to date cooling degree days 0 0  
Moisture  
Dew Point 34 °F    
Average Humidity 58    
Maximum Humidity 93    
Minimum Humidity 22    
Precipitation  
Precipitation 0.71 in 0.03 in 0.71 in (2014)
Month to date precipitation 0.76 0.82  
Year to date precipitation 0.96 1.87  
Snow  
Snow 0.00 in 0.00 in 1.50 in (1955)
Month to date snowfall 0.0 0.1  
Since 1 July snowfall 0.5 5.9  
Snow Depth 0.00 in    
Sea Level Pressure  
Sea Level Pressure 29.75 in    
Wind  
Wind Speed 6 mph (WNW)    
Max Wind Speed 18 mph    
Max Gust Speed 23 mph    
Visibility 9 miles    
Events Rain    
T = Trace of Precipitation, MM = Missing Value Source: NWS Daily Summary

Daily Weather History Graph

Daily Weather History Graph

Search for Another Location

Airport:

Trip Planner

Search our weather history database for the weather conditions in past years. The results will help you decide how hot, cold, wet, or windy it might be!

Date:

Astronomy

Feb. 27, 2014 Rise Set
Actual Time 6:27 AM PST 5:45 PM PST
Civil Twilight 6:01 AM PST 6:11 PM PST
Nautical Twilight 5:30 AM PST 6:42 PM PST
Astronomical Twilight 5:00 AM PST 7:12 PM PST
Moon 5:01 AM PST (2/27) 4:17 PM PST (2/27)
Length of Visible Light 12h 10m
Length of Day
11h 18m
Waning Crescent, 3% of the Moon is Illuminated
Feb 27
Waning Crescent
Mar 1
New
Mar 8
First Quarter
Mar 16
Full
Mar 23
Last Quarter

Hourly Weather History & Observations

Time (PST) Temp. Windchill Dew Point Humidity Pressure Visibility Wind Dir Wind Speed Gust Speed Precip Events Conditions
12:56 AM 46.9 °F - 44.1 °F 90% 29.69 in 5.0 mi South 12.7 mph - 0.15 in Rain Heavy Rain
1:56 AM 46.9 °F - 45.0 °F 93% 29.67 in 4.0 mi SE 8.1 mph - 0.23 in Rain Rain
2:56 AM 46.0 °F 43.1 °F 45.0 °F 96% 29.72 in 3.0 mi WSW 5.8 mph - 0.29 in Rain Heavy Rain
3:56 AM 44.1 °F 39.0 °F 42.1 °F 93% 29.68 in 10.0 mi WSW 9.2 mph - 0.03 in   Mostly Cloudy
4:56 AM 43.0 °F 37.7 °F 39.9 °F 89% 29.68 in 10.0 mi NNW 9.2 mph - N/A   Scattered Clouds
5:56 AM 42.1 °F 38.4 °F 39.9 °F 92% 29.73 in 10.0 mi WNW 5.8 mph - N/A   Mostly Cloudy
6:56 AM 43.0 °F 37.2 °F 34.0 °F 71% 29.79 in 10.0 mi WNW 10.4 mph - 0.00 in Rain Light Rain
7:56 AM 42.1 °F 35.7 °F 36.0 °F 79% 29.84 in 10.0 mi NW 11.5 mph - 0.00 in   Overcast
8:56 AM 45.0 °F 40.1 °F 37.0 °F 74% 29.82 in 10.0 mi West 9.2 mph - 0.01 in   Scattered Clouds
9:56 AM 46.9 °F - 37.0 °F 68% 29.82 in 10.0 mi NW 5.8 mph - N/A   Clear
10:56 AM 51.1 °F - 36.0 °F 56% 29.80 in 10.0 mi Calm Calm - N/A   Clear
11:56 AM 52.0 °F - 37.9 °F 59% 29.77 in 10.0 mi ESE 5.8 mph - N/A   Clear
12:56 PM 54.0 °F - 33.1 °F 45% 29.75 in 10.0 mi NW 5.8 mph - N/A   Clear
1:56 PM 59.0 °F - 30.0 °F 33% 29.76 in 10.0 mi Variable 4.6 mph - N/A   Clear
2:56 PM 57.9 °F - 26.1 °F 30% 29.74 in 10.0 mi Calm Calm - N/A   Clear
3:56 PM 60.1 °F - 21.9 °F 23% 29.73 in 10.0 mi West 3.5 mph - N/A   Clear
4:56 PM 60.1 °F - 25.0 °F 26% 29.73 in 10.0 mi Calm Calm - N/A   Clear
5:56 PM 54.0 °F - 28.0 °F 37% 29.75 in 10.0 mi West 6.9 mph - N/A   Clear
6:56 PM 48.9 °F - 32.0 °F 52% 29.75 in 10.0 mi Variable 4.6 mph - N/A   Clear
7:56 PM 46.9 °F - 30.9 °F 54% 29.75 in 10.0 mi Calm Calm - N/A   Clear
8:56 PM 42.1 °F 37.7 °F 33.1 °F 70% 29.74 in 10.0 mi NNW 6.9 mph - N/A   Clear
9:56 PM 42.1 °F - 30.9 °F 65% 29.74 in 10.0 mi Calm Calm - N/A   Clear
10:56 PM 37.9 °F 34.4 °F 32.0 °F 79% 29.74 in 10.0 mi NNW 4.6 mph - N/A   Clear
11:56 PM 37.9 °F 34.4 °F 33.1 °F 83% 29.75 in 10.0 mi ENE 4.6 mph - N/A   Clear